Hourly Data Report for September 16, 2004

SHERBROOKE A
QUEBEC

45°26'00.000" N
71°41'00.000" W
241.40 m
7028124
71610
YSC

Download Data

Hourly Data (September 2004)
Hourly Data Report for September 16, 2004
TIME
LST
Temp Definition
°C
Dew Point Definition
°C
Rel Hum Definition
%
Precip. Amount Definition
mm

Wind Dir Definition
10's deg

Wind Spd Definition
km/h
Visibility Definition
km
Stn Press Definition
kPa
Hmdx Definition


Wind Chill Definition


Weather Definition


00:00 12.2 11.6 96     0 8.0 99.06      
01:00 13.0 12.5 97   10 4 6.4 99.05      
02:00 12.3 11.9 97     0 4.8 99.03      
03:00 13.4 12.8 96     0 6.4 99.00      
04:00 12.9 12.4 97   11 4 5.6 99.00      
05:00 13.0 12.6 97   9 4 4.8 99.03      
06:00 12.3 12.0 98     0 4.0 99.04      
07:00 15.3 13.9 91     0 16.1 99.05     Mainly Clear
08:00 16.9 14.4 85     0 16.1 99.04     Mainly Clear
09:00 19.3 15.4 78   24 4 19.3 99.00     Mainly Clear
10:00 21.6 15.2 67     0 19.3 98.93 26   Mainly Clear
11:00 23.0 15.4 62   15 7 19.3 98.82 27   Mainly Clear
12:00 24.4 15.7 58   20 15 19.3 98.70 29   Mainly Clear
13:00 24.4 15.3 57   19 17 19.3 98.60 29   Mainly Clear
14:00 25.3 14.7 52   20 15 19.3 98.50 29   Mainly Clear
15:00 24.6 15.4 57   20 11 19.3 98.48 29   Mainly Clear
16:00 24.2 14.6 55   21 11 19.3 98.47 28   Mainly Clear
17:00 22.6 15.3 63   17 9 15.0 98.43 27    
18:00 20.2 14.8 71   16 9 15.0 98.39      
19:00 18.4 14.6 79   19 6 15.0 98.42      
20:00 17.5 14.5 83   20 6 15.0 98.41      
21:00 18.2 14.8 81   15 7 15.0 98.37      
22:00 18.8 14.8 78   18 7 15.0 98.36      
23:00 19.5 14.9 75   19 6 15.0 98.33      

Notes on Data Quality.

Legend

  • E = Estimated
  • M = Missing
  • NA = Not Available*
  • [empty] = Indicates an unobserved value
Date modified: